Home > Weather > Ontario > Past weeks

Flag for USA Past Weather in Ontario, Oregon, USA — Yesterday and Last 2 Weeks

Now
57 °F

Clear.


Feels Like: 57 °F
Forecast: 51 / 90 °F
Wind: No wind

Location: Ontario Municipal Airport

Current Time: Jun 1, 2016 at 1:35:09 AM

Latest Report: Jun 1, 2016 at 12:53 AM


Visibility: 10 mi

Pressure: 29.97 "Hg (27.72 "Hg at 656m altitude)

Humidity: 55%

Dew Point: 41 °F

Location of OntarioLocation

Past Weather in Ontario — Graph

°F

Ontario Temperature Yesterday

Maximum temperature yesterday: 83 °F (at 4:53 PM)
Minimum temperature yesterday: 53 °F (at 6:53 AM)
Average temperature yesterday: 68 °F

High & Low Weather Summary for the Past Weeks

 TemperatureHumidityPressure
High83 °F (May 18, 3:53 PM)93% (May 21, 3:53 AM)30.16 "Hg (May 21, 3:53 AM)
Low42 °F (May 23, 6:53 AM)7% (May 30, 4:53 PM)29.64 "Hg (May 20, 1:53 PM)
Average62 °F47%29.92 "Hg
* Reported May 16 11:53 PM — May 31 11:53 PM, Ontario, Weather by CustomWeather, © 2016

Note: Actual official high and low records may vary slightly from our data, if they occured in-between our weather recording intervals... More about our weather records

Advertising

Ontario Weather History for the Previous 24 Hours

Scroll right to see more
 ConditionsComfort  
Time TempWeatherWind HumidityBarometerVisibility
11:53 PM
Tue, May 31
63 °FClear.3 mph41%29.97 "Hg10 mi
10:53 PM65 °FSunny.No wind44%29.96 "Hg10 mi
9:53 PM68 °FSunny.3 mph42%29.95 "Hg10 mi
8:53 PM78 °FSunny.No wind20%29.94 "Hg10 mi
7:53 PM81 °FSunny.5 mph18%29.94 "Hg10 mi
6:53 PM82 °FSunny.5 mph14%29.95 "Hg10 mi
5:53 PM83 °FSunny.5 mph13%29.96 "Hg10 mi
4:53 PM83 °FSunny.6 mph15%29.98 "Hg10 mi
3:53 PM82 °FSunny.3 mph13%30.01 "Hg10 mi
2:53 PM79 °FSunny.No wind14%30.03 "Hg10 mi
1:53 PM78 °FSunny.5 mph15%30.05 "Hg10 mi
12:53 PM76 °FSunny.3 mph20%30.07 "Hg10 mi
11:53 AM73 °FSunny.3 mph25%30.09 "Hg10 mi
10:53 AM69 °FSunny.3 mph32%30.10 "Hg10 mi
9:53 AM66 °FSunny.3 mph34%30.11 "Hg10 mi
8:53 AM61 °FSunny.3 mph41%30.11 "Hg10 mi
7:53 AM56 °FClear.6 mph47%30.11 "Hg10 mi
6:53 AM53 °FClear.6 mph51%30.09 "Hg10 mi
5:53 AM56 °FClear.10 mph44%30.10 "Hg10 mi
4:53 AM56 °FClear.6 mph44%30.09 "Hg10 mi
3:53 AM56 °FClear.6 mph44%30.09 "Hg10 mi
2:53 AM56 °FClear.6 mph42%30.08 "Hg10 mi
1:53 AM58 °FClear.9 mph39%30.08 "Hg10 mi
Weather by CustomWeather, © 2016

See weather overviewHow to use our weather pages